SEBI

Registration No.

INH000000305

Ip Address Lookup

So far visitors:

customizable counter

TRIAL

TRIAL

SEND SMS FOR TRIAL

EQUITY - COMMODITY OR BOTH

TO

 09920033678

AND GET TRIAL

 


Information: COPPER (MCX): LOT SIZE CHANGED TO 2500 from 1000 (from JUL CONTRACT)

SEBI Registration No.: INH000000305 *****

* Commodity: 9500/month * Equity: 6000/month


* Gold Package: 7000 * Gold-Silver Package: 8100
*Crude-NG-Copper-Nickel Package: 6000


To See Past Performance, Click Here

For TRIAL / Registration,

click here

Past Performance >> Equity Tips
 
Search
 
Entry Start Date Entry End Date
Exit Start Date Exit End Date
Scrip Name Contract
Package
 

Packages: Precious Metals - Energy and Base Metals - Profit is calculated on basis of 1 lot per call

Package: Equity calls: Profit is calculated as follows:

1. If the scrip is in F & O then 1 lot is counted otherwise

2. Trade of Rs.1,50,000/- per call is counted.

 
Page: ( 1 2 3 4 5 6 7 8 9 10 11 12 13 14 15 16 17 18 19 20 21 22 23 24 25 26 27 28 29 30 31 32 33 34 35 36 37 38 39 40 41 42 43 44 45 46 47 48 49 50 51 52 53 54 55 56 57 58 59 60 61 62 63 64 65 66 67 68 69 70 71 72 73 74 75 76 77 78 79 80 81 82 83 84 85 86 87 88 89 90 91 92 93 94 95 96 97 98 99 100 101 102 103 104 105 106 107 108 109 110 111 112 ) [Current Page: 110]
Displaying 8176 to 8250   Calls
Entry Date Type Scrip Entry Price (Rs) T1
(Rs)
T2
(Rs)
T3
(Rs)
Stop Loss
(Rs)
Exit Date Exit Rate
(Rs)
Profit
(Rs)
 
14-10-10 Buy ICICI BANK 1166 1185 1200 1235 1144 14-10-10 1144 -5500.00 More
14-10-10 Buy Sterlite Ind 184.80 187 192 203 175 18-10-10 175 -9800.00 More
14-10-10 Buy HCL TECH 450 460 470 480 438 14-10-10 438 -12000.00 More
14-10-10 Buy DR REDDY 1605 1625 1650 1675 1582 14-10-10 1582 -5750.00 More
13-10-10 Buy PETRONET 118.75 123 127 132 113.80 14-10-10 121.40 10600.00 More
13-10-10 Buy KPIT Cummins 177.50 180 190 200 160 14-10-10 182.75 2940.00 More
13-10-10 Buy GOCLCORP 113.50 118 122 125 104 13-10-10 123.90 10712.00 More
13-10-10 Sell JSWSteel 1343 1332 1320 1300 1362 13-10-10 1343 0.00 More
13-10-10 Buy Above TCS 955.50 965 975 1000 949 13-10-10 993 18750.00 More
12-10-10 Buy HCC 66.50 68.50 70 --- 65.30 14-10-10 65.30 -4800.00 More
12-10-10 Buy BANK NIFTY 12450 12600 12700 --- 12300 13-10-10 12674 5600.00 More
12-10-10 Buy Koutons 114 123 --- --- 112 12-10-10 122 7040.00 More
12-10-10 Buy Jindal Drilling 619 650 700 750 553 12-10-10 638.40 3104.00 More
12-10-10 Buy Jindal Photo 263 275 --- --- 252 12-10-10 252 -4180.00 More
12-10-10 Buy Granules 109 115 120 125 102 14-10-10 106.30 -2484.00 More
12-10-10 Buy Nifty 6139 6155 6170 6185 6095 12-10-10 6095 -2200.00 More
12-10-10 Buy PETRONET 113.20 116 118 120 109 13-10-10 117.10 15600.00 More
12-10-10 Buy HERO MOTOR 1870 1910 1930 1950 1832 14-10-10 1893.90 2987.50 More
11-10-10 Buy Neyveli Lignite 169.15 174 178 185 164 13-10-10 178.70 19100.00 More
11-10-10 Buy Areva 327 335 340 345 317 14-10-10 317 -10000.00 More
11-10-10 Buy RELIANCE 1061 1071 1091 1100 1040 11-10-10 1071 2500.00 More
08-10-10 Buy WIPRO 462 471 --- --- 452 12-10-10 471 7497.00 More
08-10-10 Buy BRFL 261 270 --- --- 255 08-10-10 258 -3000.00 More
08-10-10 Buy Deccan Chronicle (DCHL) 137.55 141 --- --- 135 08-10-10 137 -1100.00 More
08-10-10 Buy Crompton Greaves 330 340 --- --- 327 08-10-10 327 -3000.00 More
07-10-10 Buy PETRONET 112.30 115 117 119 111 08-10-10 113 2800.00 More
07-10-10 Buy Nifty 6156 6180 6190 6200 6135 07-10-10 6140 -800.00 More
07-10-10 Buy Above RELIANCE CAPITAL 881 895 910 935 865 07-10-10 865 -8000.00 More
07-10-10 Buy RELIANCE 1051 1061 1071 1081 1040 07-10-10 1040 -2750.00 More
07-10-10 Buy BANK NIFTY 12636 12660 12700 12800 12569 07-10-10 12660 600.00 More
07-10-10 Buy Guj NRE Coke 64.35 68 70 75 61.40 07-10-10 64 -542.50 More
07-10-10 Buy Crompton Greaves 334 350 360 370 315 07-10-10 340 6000.00 More
07-10-10 Buy DR REDDY 1530 1550 1560 1570 1518 07-10-10 1570 10000.00 More
06-10-10 Buy Above NMDC 286 300 320 330 260 07-10-10 298.80 4480.00 More
06-10-10 Buy Piramal Glass 137 140 145 150 130 06-10-10 139.85 2080.50 More
06-10-10 Buy Aptech 173 190 200 210 153 06-10-10 179 3480.00 More
06-10-10 Buy NOCIL 24.30 27.40 30 32 23 06-10-10 26.20 7752.00 More
06-10-10 Buy Ramco Ind 74.50 80 83 88 70 07-10-10 73 -2010.00 More
06-10-10 Buy Karuturi Global 29.40 32 35 38 25 07-10-10 27.30 -7140.00 More
06-10-10 Buy Aban Offshore 905 920 940 960 880 07-10-10 880 -6250.00 More
06-10-10 Buy Subex 60 65 67 70 53 07-10-10 63.80 6346.00 More
06-10-10 Buy RNRL 42.25 44 46 48 39 07-10-10 41 -5000.00 More
05-10-10 Buy Above RComm 177 181 195 200 169 07-10-10 183.80 13600.00 More
05-10-10 Buy Sadbhav Engg 1555 1615 1625 1720 1520 06-10-10 1520 -2100.00 More
05-10-10 Buy Above ACC 1026 1035 1045 1060 1020 06-10-10 1039 3250.00 More
04-10-10 Buy Engineers India Ltd 360 370 380 400 345 06-10-10 358 -560.00 More
04-10-10 Buy RELIANCE CAPITAL 813 828 835 850 804 05-10-10 855 21000.00 More
04-10-10 Buy India Glycol 126 130 135 140 115 05-10-10 140 11060.00 More
04-10-10 Buy Above Sesa Goa 356 362 364 366 351 04-10-10 362 3000.00 More
04-10-10 Buy HCL TECH 437 450 460 480 427 07-10-10 432 -5000.00 More
04-10-10 Buy Punj Lloyd 133 141 149 155 123.50 05-10-10 140.75 15500.00 More
04-10-10 Buy Vijay Textile 5.05 7 9 10 4.60 05-10-10 4.60 -8910.00 More
04-10-10 Buy Above 492.50 500 520 540 482 06-10-10 500 3750.00 More
04-10-10 Buy Above Kinetic Motor 26.60 29 31.30 35 22 06-10-10 34.65 31475.50 More
04-10-10 Buy Provogue 70 74 78 82 62 06-10-10 80 14300.00 More
04-10-10 Buy Aban Offshore 865 885 900 935 840 05-10-10 899.25 8562.50 More
04-10-10 Buy BHEL 2622 2650 2700 2750 2550 07-10-10 2695 9125.00 More
04-10-10 Buy PETRONET 109.60 113 118 128 105 04-10-10 114 17600.00 More
01-10-10 Buy Tinplate Company (504966) 89 91 93 95 85.50 06-10-10 89 0.00 More
01-10-10 Buy BBTC 568 580 590 610 551 06-10-10 600 5440.00 More
01-10-10 Buy BANK NIFTY 12460 12500 12700 13000 12050 04-10-10 12725 6625.00 More
01-10-10 Buy Nifty 6107 6125 6150 6200 6049 04-10-10 6216 5450.00 More
01-10-10 Buy WIPRO 455 465 470 475 447 04-10-10 470 12495.00 More
01-10-10 Buy HDFC 733 745 764.90 780 705 04-10-10 764.90 19937.50 More
01-10-10 Buy Above Kingfisher Airlines 75.50 80 85 90 70 06-10-10 79.10 14400.00 More
01-10-10 Buy Above ICICI BANK 1132 1145 1165 1185 1109 05-10-10 1169.70 9425.00 More
01-10-10 Buy Above HINDALCO 200 205 210 215 198 04-10-10 210 20000.00 More
29-09-10 Buy SIEMENS 834 850 870 900 813 30-09-10 813 -10500.00 More
28-09-10 Buy J M Financial 38.60 41 44 48 35 07-10-10 47.65 23168.00 More
28-09-10 Buy Videocon Industries 281.50 287 297 301 274 30-09-10 274 -7500.00 More
28-09-10 Buy Balrampur Chini 94 99 104 115 89 29-09-10 91 -12000.00 More
28-09-10 Buy GLENMARK 301 310 320 335 288 01-10-10 319.70 6171.00 More
27-09-10 Buy Walchandnagar 217.50 225 230 235 210 30-09-10 210 -3075.00 More
27-09-10 Buy GSPL 112.65 115 117 121 111 27-09-10 114.50 7400.00 More
27-09-10 Buy HERO MOTOR 1875 1900 1925 1950 1850 28-09-10 1850 -3125.00 More
Page wise profit 283627.00 Rs
Profit 26306401.50 Rs
TRIAL

TRIAL

SEND SMS FOR TRIAL

EQUITY - COMMODITY OR BOTH

TO

 09920033678

AND GET TRIAL